Regional Weather Roundup
Issued by NWS

Home | Current Version | Previous Version | Text Only | Print | Product List | Glossary Off
Versions: 1 2 3 4 5 6 7 8 9 10 11 12 13 14 15 16 17 18 19 20 21 22 23 24 25 26 27 28 29 30 31 32 33 34 35 36 37 38 39 40 41 42 43 44 45 46 47 48 49 50

000
ASUS43 KLSX 220759
RWRMO

WEATHER SUMMARY FOR MISSOURI
NATIONAL WEATHER SERVICE SPRINGFIELD MO
200 AM CST MON DEC 22 2014

NOTE: "FAIR" INDICATES FEW OR NO CLOUDS BELOW 12,000 FEET WITH NO
       SIGNIFICANT WEATHER AND/OR OBSTRUCTIONS TO VISIBILITY.
       CURRENT SKY AND/OR WEATHER CONDITIONS ARE NOT AVAILABLE FOR
       CHILLICOTHE AND FARMINGTON.

MOZ001>031-035>038-043-044-053-054-220900-
...NORTHERN AND WESTERN MISSOURI...

CITY           SKY/WX    TMP DP  RH WIND       PRES   REMARKS
KANSAS CTY INT CLOUDY    42  38  85 S15       29.68F
KANSAS C DTWN  CLOUDY    44  37  76 S10       29.69F
LEE`S SUMMIT   CLOUDY    42  37  82 S9G16     29.70F
ST JOSEPH      CLOUDY    43  38  82 S10       29.68F
CHILLICOTHE      N/A     42  37  82 SE8       29.75F
KIRKSVILLE     CLOUDY    39  36  89 SE13      29.79F

$$
MOZ066>068-077>081-088>096-101>105-220900-
...SOUTHWEST MISSOURI...

CITY           SKY/WX    TMP DP  RH WIND       PRES   REMARKS
SPRINGFIELD    CLOUDY    43  36  76 SE16      29.72F
JOPLIN         CLOUDY    43  41  93 SE10      29.71S

$$
MOZ032>034-039>042-045>050-055>058-069>072-220900-
...CENTRAL MISSOURI...

CITY           SKY/WX    TMP DP  RH WIND       PRES   REMARKS
COLUMBIA       CLOUDY    41  34  76 SE10      29.80F
JEFFERSON CITY CLOUDY    42  34  73 SE7       29.82F
ROLLA          CLOUDY    41  32  70 SE10      29.79F
SEDALIA        CLOUDY    43  36  76 SE12      29.76F
WARRENSBURG    CLOUDY    41  36  81 SE12      29.73F
OSAGE BEACH    CLOUDY    43  34  70 SE9       29.78F

$$
MOZ051-052-059>065-220900-
...EAST CENTRAL MISSOURI...

CITY           SKY/WX    TMP DP  RH WIND       PRES   REMARKS
ST LOUIS INTL  CLOUDY    43  31  62 SE9       29.90S
SPIRIT OF STL  CLOUDY    42  31  64 E5        29.88F
ST CHARLES     CLOUDY    40  34  79 E8        29.90F

$$
MOZ072>076-082>087-097>100-106>115-220900-
...SOUTH CENTRAL AND SOUTHEAST MISSOURI...

CITY           SKY/WX    TMP DP  RH WIND       PRES   REMARKS
CAPE GIRARDEAU CLOUDY    42  34  73 SE6       29.91F
FARMINGTON     CLOUDY    41  30  65 E6        29.88F
POPLAR BLUFF   CLOUDY    43  35  73 SE5       29.88F
WEST PLAINS    CLOUDY    41  33  73 SE9       29.81F

$$



USA.gov is the U.S. government's official web portal to all federal, state and local government web resources and services.